Year,Month,Day,Hour,Minute,Value (Times are PST for temperature in C)
2021,04,17,00,00,15.70
2021,04,17,00,01,15.70
2021,04,17,00,02,15.70
2021,04,17,00,03,15.70
2021,04,17,00,04,15.70
2021,04,17,00,05,15.70
2021,04,17,00,06,15.70
2021,04,17,00,07,15.70
2021,04,17,00,08,15.70
2021,04,17,00,09,15.70
2021,04,17,00,10,15.70
2021,04,17,00,11,15.70
2021,04,17,00,12,15.70
2021,04,17,00,13,15.80
2021,04,17,00,14,15.80
2021,04,17,00,15,15.80
2021,04,17,00,16,15.80
2021,04,17,00,17,15.80
2021,04,17,00,18,15.80
2021,04,17,00,19,15.80
2021,04,17,00,20,15.90
2021,04,17,00,21,15.90
2021,04,17,00,22,15.90
2021,04,17,00,23,15.90
2021,04,17,00,24,15.90
2021,04,17,00,25,15.90
2021,04,17,00,26,15.90
2021,04,17,00,27,15.90
2021,04,17,00,28,16.00
2021,04,17,00,29,16.00
2021,04,17,00,30,15.90
2021,04,17,00,31,15.90
2021,04,17,00,32,15.90
2021,04,17,00,33,15.90
2021,04,17,00,34,15.90
2021,04,17,00,35,15.90
2021,04,17,00,36,16.00
2021,04,17,00,37,16.00
2021,04,17,00,38,16.00
2021,04,17,00,39,16.00
2021,04,17,00,40,16.00
2021,04,17,00,41,15.90
2021,04,17,00,42,15.90
2021,04,17,00,43,15.90
2021,04,17,00,44,15.90
2021,04,17,00,45,16.00
2021,04,17,00,46,16.10
2021,04,17,00,47,16.10
2021,04,17,00,48,16.10
2021,04,17,00,49,16.20
2021,04,17,00,50,16.20
2021,04,17,00,51,16.20
2021,04,17,00,52,16.20
2021,04,17,00,53,16.20
2021,04,17,00,54,16.20
2021,04,17,00,55,16.20
2021,04,17,00,56,16.30
2021,04,17,00,57,16.30
2021,04,17,00,58,16.30
2021,04,17,00,59,16.30
2021,04,17,01,00,16.30
2021,04,17,01,01,16.30
2021,04,17,01,02,16.20
2021,04,17,01,03,16.20
2021,04,17,01,04,16.20
2021,04,17,01,05,16.20
2021,04,17,01,06,16.20
2021,04,17,01,07,16.20
2021,04,17,01,08,16.20
2021,04,17,01,09,16.20
2021,04,17,01,10,16.20
2021,04,17,01,11,16.20
2021,04,17,01,12,16.20
2021,04,17,01,13,16.20
2021,04,17,01,14,16.20
2021,04,17,01,15,16.20
2021,04,17,01,16,16.20
2021,04,17,01,17,16.20
2021,04,17,01,18,16.20
2021,04,17,01,19,16.20
2021,04,17,01,20,16.30
2021,04,17,01,21,16.30
2021,04,17,01,22,16.30
2021,04,17,01,23,16.30
2021,04,17,01,24,16.20
2021,04,17,01,25,16.20
2021,04,17,01,26,16.20
2021,04,17,01,27,16.20
2021,04,17,01,28,16.30
2021,04,17,01,29,16.30
2021,04,17,01,30,16.30
2021,04,17,01,31,16.40
2021,04,17,01,32,16.40
2021,04,17,01,33,16.40
2021,04,17,01,34,16.40
2021,04,17,01,35,16.40
2021,04,17,01,36,16.40
2021,04,17,01,37,16.40
2021,04,17,01,38,16.40
2021,04,17,01,39,16.40
2021,04,17,01,40,16.40
2021,04,17,01,41,16.40
2021,04,17,01,42,16.30
2021,04,17,01,43,16.30
2021,04,17,01,44,16.30
2021,04,17,01,45,16.20
2021,04,17,01,46,16.20
2021,04,17,01,47,16.20
2021,04,17,01,48,16.20
2021,04,17,01,49,16.30
2021,04,17,01,50,16.40
2021,04,17,01,51,16.50
2021,04,17,01,52,16.60
2021,04,17,01,53,16.60
2021,04,17,01,54,16.60
2021,04,17,01,55,16.70
2021,04,17,01,56,16.70
2021,04,17,01,57,16.70
2021,04,17,01,58,16.70
2021,04,17,01,59,16.60
2021,04,17,02,00,16.40
2021,04,17,02,01,16.30
2021,04,17,02,02,16.30
2021,04,17,02,03,16.10
2021,04,17,02,04,16.10
2021,04,17,02,05,16.00
2021,04,17,02,06,16.00
2021,04,17,02,07,15.90
2021,04,17,02,08,15.90
2021,04,17,02,09,15.90
2021,04,17,02,10,15.90
2021,04,17,02,11,15.90
2021,04,17,02,12,15.80
2021,04,17,02,13,15.80
2021,04,17,02,14,15.80
2021,04,17,02,15,15.80
2021,04,17,02,16,15.80
2021,04,17,02,17,15.80
2021,04,17,02,18,15.80
2021,04,17,02,19,15.80
2021,04,17,02,20,15.80
2021,04,17,02,21,15.80
2021,04,17,02,22,15.70
2021,04,17,02,23,15.70
2021,04,17,02,24,15.60
2021,04,17,02,25,15.40
2021,04,17,02,26,15.40
2021,04,17,02,27,15.20
2021,04,17,02,28,15.20
2021,04,17,02,29,15.00
2021,04,17,02,30,14.80
2021,04,17,02,31,14.70
2021,04,17,02,32,14.60
2021,04,17,02,33,14.50
2021,04,17,02,34,14.40
2021,04,17,02,35,14.40
2021,04,17,02,36,14.30
2021,04,17,02,37,14.30
2021,04,17,02,38,14.20
2021,04,17,02,39,14.20
2021,04,17,02,40,14.10
2021,04,17,02,41,14.10
2021,04,17,02,42,14.10
2021,04,17,02,43,14.10
2021,04,17,02,44,14.20
2021,04,17,02,45,14.20
2021,04,17,02,46,14.30
2021,04,17,02,47,14.40
2021,04,17,02,48,14.50
2021,04,17,02,49,14.50
2021,04,17,02,50,14.50
2021,04,17,02,51,14.50
2021,04,17,02,52,14.40
2021,04,17,02,53,14.40
2021,04,17,02,54,14.40
2021,04,17,02,55,14.20
2021,04,17,02,56,14.10
2021,04,17,02,57,14.00
2021,04,17,02,58,13.90
2021,04,17,02,59,13.80
2021,04,17,03,00,13.70
2021,04,17,03,01,13.70
2021,04,17,03,02,13.60
2021,04,17,03,03,13.60
2021,04,17,03,04,13.60
2021,04,17,03,05,13.60
2021,04,17,03,06,13.70
2021,04,17,03,07,13.70
2021,04,17,03,08,13.80
2021,04,17,03,09,13.70
2021,04,17,03,10,13.70
2021,04,17,03,11,13.70
2021,04,17,03,12,13.70
2021,04,17,03,13,13.80
2021,04,17,03,14,13.80
2021,04,17,03,15,13.80
2021,04,17,03,16,13.90
2021,04,17,03,17,13.90
2021,04,17,03,18,13.90
2021,04,17,03,19,13.90
2021,04,17,03,20,13.80
2021,04,17,03,21,13.80
2021,04,17,03,22,13.70
2021,04,17,03,23,13.70
2021,04,17,03,24,13.60
2021,04,17,03,25,13.50
2021,04,17,03,26,13.40
2021,04,17,03,27,13.40
2021,04,17,03,28,13.30
2021,04,17,03,29,13.30
2021,04,17,03,30,13.10
2021,04,17,03,31,13.00
2021,04,17,03,32,13.00
2021,04,17,03,33,12.90
2021,04,17,03,34,12.90
2021,04,17,03,35,12.90
2021,04,17,03,36,12.90
2021,04,17,03,37,12.80
2021,04,17,03,38,12.80
2021,04,17,03,39,12.70
2021,04,17,03,40,12.70
2021,04,17,03,41,12.70
2021,04,17,03,42,12.90
2021,04,17,03,43,13.10
2021,04,17,03,44,13.20
2021,04,17,03,45,13.40
2021,04,17,03,46,13.40
2021,04,17,03,47,13.70
2021,04,17,03,48,13.90
2021,04,17,03,49,14.10
2021,04,17,03,50,14.20
2021,04,17,03,51,14.20
2021,04,17,03,52,14.30
2021,04,17,03,53,14.40
2021,04,17,03,54,14.40
2021,04,17,03,55,14.40
2021,04,17,03,56,14.50
2021,04,17,03,57,14.60
2021,04,17,03,58,14.70
2021,04,17,03,59,14.60
2021,04,17,04,00,14.60
2021,04,17,04,01,14.60
2021,04,17,04,02,14.50
2021,04,17,04,03,14.40
2021,04,17,04,04,14.40
2021,04,17,04,05,14.20
2021,04,17,04,06,14.00
2021,04,17,04,07,14.00
2021,04,17,04,08,14.00
2021,04,17,04,09,13.90
2021,04,17,04,10,13.80
2021,04,17,04,11,13.80
2021,04,17,04,12,13.80
2021,04,17,04,13,13.70
2021,04,17,04,14,13.60
2021,04,17,04,15,13.60
2021,04,17,04,16,13.50
2021,04,17,04,17,13.50
2021,04,17,04,18,13.40
2021,04,17,04,19,13.40
2021,04,17,04,20,13.40
2021,04,17,04,21,13.40
2021,04,17,04,22,13.50
2021,04,17,04,23,13.50
2021,04,17,04,24,13.60
2021,04,17,04,25,13.60
2021,04,17,04,26,13.60
2021,04,17,04,27,13.60
2021,04,17,04,28,13.60
2021,04,17,04,29,13.60
2021,04,17,04,30,13.60
2021,04,17,04,31,13.70
2021,04,17,04,32,13.70
2021,04,17,04,33,13.70
2021,04,17,04,34,13.70
2021,04,17,04,35,13.60
2021,04,17,04,36,13.60
2021,04,17,04,37,13.60
2021,04,17,04,38,13.60
2021,04,17,04,39,13.60
2021,04,17,04,40,13.60
2021,04,17,04,41,13.50
2021,04,17,04,42,13.40
2021,04,17,04,43,13.40
2021,04,17,04,44,13.30
2021,04,17,04,45,13.30
2021,04,17,04,46,13.20
2021,04,17,04,47,13.20
2021,04,17,04,48,13.00
2021,04,17,04,49,12.70
2021,04,17,04,50,12.60
2021,04,17,04,51,12.50
2021,04,17,04,52,12.40
2021,04,17,04,53,12.40
2021,04,17,04,54,12.30
2021,04,17,04,55,12.30
2021,04,17,04,56,12.30
2021,04,17,04,57,12.20
2021,04,17,04,58,12.00
2021,04,17,04,59,11.90
2021,04,17,05,00,11.90
2021,04,17,05,01,11.80
2021,04,17,05,02,11.90
2021,04,17,05,03,11.90
2021,04,17,05,04,11.90
2021,04,17,05,05,11.90
2021,04,17,05,06,12.00
2021,04,17,05,07,12.10
2021,04,17,05,08,12.20
2021,04,17,05,09,12.30
2021,04,17,05,10,12.30
2021,04,17,05,11,12.40
2021,04,17,05,12,12.50
2021,04,17,05,13,12.50
2021,04,17,05,14,12.50
2021,04,17,05,15,12.50
2021,04,17,05,16,12.50
2021,04,17,05,17,12.50
2021,04,17,05,18,12.40
2021,04,17,05,19,12.40
2021,04,17,05,20,12.40
2021,04,17,05,21,12.40
2021,04,17,05,22,12.40
2021,04,17,05,23,12.40
2021,04,17,05,24,12.30
2021,04,17,05,25,12.30
2021,04,17,05,26,12.30
2021,04,17,05,27,12.30
2021,04,17,05,28,12.30
2021,04,17,05,29,12.30
2021,04,17,05,30,12.30
2021,04,17,05,31,12.30
2021,04,17,05,32,12.50
2021,04,17,05,33,12.60
2021,04,17,05,34,12.60
2021,04,17,05,35,12.60
2021,04,17,05,36,12.60
2021,04,17,05,37,12.60
2021,04,17,05,38,12.60
2021,04,17,05,39,12.60
2021,04,17,05,40,12.60
2021,04,17,05,41,12.80
2021,04,17,05,42,12.80
2021,04,17,05,43,12.80
2021,04,17,05,44,12.90
2021,04,17,05,45,12.90
2021,04,17,05,46,12.90
2021,04,17,05,47,13.00
2021,04,17,05,48,13.00
2021,04,17,05,49,13.10
2021,04,17,05,50,13.20
2021,04,17,05,51,13.20
2021,04,17,05,52,13.30
2021,04,17,05,53,13.30
2021,04,17,05,54,13.30
2021,04,17,05,55,13.30
2021,04,17,05,56,13.30
2021,04,17,05,57,13.30
2021,04,17,05,58,13.30
2021,04,17,05,59,13.30
2021,04,17,06,00,13.20
2021,04,17,06,01,13.20
2021,04,17,06,02,13.20
2021,04,17,06,03,13.20
2021,04,17,06,04,13.20
2021,04,17,06,05,13.20
2021,04,17,06,06,13.20
2021,04,17,06,07,13.10
2021,04,17,06,08,13.10
2021,04,17,06,09,13.00
2021,04,17,06,10,12.90
2021,04,17,06,11,12.90
2021,04,17,06,12,12.90
2021,04,17,06,13,12.90
2021,04,17,06,14,12.90
2021,04,17,06,15,12.90
2021,04,17,06,16,12.90
2021,04,17,06,17,12.90
2021,04,17,06,18,12.90
2021,04,17,06,19,12.90
2021,04,17,06,20,12.90
2021,04,17,06,21,12.90
2021,04,17,06,22,12.90
2021,04,17,06,23,12.90
2021,04,17,06,24,13.00
2021,04,17,06,25,13.10
2021,04,17,06,26,13.10
2021,04,17,06,27,13.10
2021,04,17,06,28,13.10
2021,04,17,06,29,13.10
2021,04,17,06,30,13.10
2021,04,17,06,31,13.20
2021,04,17,06,32,13.20
2021,04,17,06,33,13.20
2021,04,17,06,34,13.20
2021,04,17,06,35,13.20
2021,04,17,06,36,13.20
2021,04,17,06,37,13.20
2021,04,17,06,38,13.20
2021,04,17,06,39,13.10
2021,04,17,06,40,13.10
2021,04,17,06,41,13.10
2021,04,17,06,42,13.00
2021,04,17,06,43,13.00
2021,04,17,06,44,12.90
2021,04,17,06,45,12.90
2021,04,17,06,46,12.90
2021,04,17,06,47,12.90
2021,04,17,06,48,12.90
2021,04,17,06,49,12.90
2021,04,17,06,50,12.90
2021,04,17,06,51,12.90
2021,04,17,06,52,12.90
2021,04,17,06,53,13.00
2021,04,17,06,54,12.90
2021,04,17,06,55,13.00
2021,04,17,06,56,13.00
2021,04,17,06,57,12.90
2021,04,17,06,58,12.90
2021,04,17,06,59,12.90
2021,04,17,07,00,12.90
2021,04,17,07,01,12.80
2021,04,17,07,02,12.80
2021,04,17,07,03,12.80
2021,04,17,07,04,12.80
2021,04,17,07,05,12.80
2021,04,17,07,06,12.80
2021,04,17,07,07,12.80
2021,04,17,07,08,12.80
2021,04,17,07,09,12.90
2021,04,17,07,10,12.90
2021,04,17,07,11,12.90
2021,04,17,07,12,12.90
2021,04,17,07,13,12.90
2021,04,17,07,14,12.90
2021,04,17,07,15,12.90
2021,04,17,07,16,12.90
2021,04,17,07,17,12.90
2021,04,17,07,18,12.90
2021,04,17,07,19,13.00
2021,04,17,07,20,12.90
2021,04,17,07,21,12.90
2021,04,17,07,22,12.80
2021,04,17,07,23,12.90
2021,04,17,07,24,12.90
2021,04,17,07,25,12.90
2021,04,17,07,26,12.90
2021,04,17,07,27,12.90
2021,04,17,07,28,12.90
2021,04,17,07,29,12.90
2021,04,17,07,30,13.00
2021,04,17,07,31,13.00
2021,04,17,07,32,13.00
2021,04,17,07,33,13.00
2021,04,17,07,34,13.10
2021,04,17,07,35,13.10
2021,04,17,07,36,13.10
2021,04,17,07,37,13.20
2021,04,17,07,38,13.20
2021,04,17,07,39,13.20
2021,04,17,07,40,13.20
2021,04,17,07,41,13.20
2021,04,17,07,42,13.30
2021,04,17,07,43,13.30
2021,04,17,07,44,13.40
2021,04,17,07,45,13.40
2021,04,17,07,46,13.40
2021,04,17,07,47,13.40
2021,04,17,07,48,13.40
2021,04,17,07,49,13.40
2021,04,17,07,50,13.40
2021,04,17,07,51,13.50
2021,04,17,07,52,13.60
2021,04,17,07,53,13.70
2021,04,17,07,54,13.70
2021,04,17,07,55,13.70
2021,04,17,07,56,13.70
2021,04,17,07,57,13.80
2021,04,17,07,58,13.80
2021,04,17,07,59,13.80
2021,04,17,08,00,13.90
2021,04,17,08,01,13.90
2021,04,17,08,02,13.90
2021,04,17,08,03,13.90
2021,04,17,08,04,13.90
2021,04,17,08,05,13.90
2021,04,17,08,06,14.00
2021,04,17,08,07,14.10
2021,04,17,08,08,14.10
2021,04,17,08,09,14.10
2021,04,17,08,10,14.10
2021,04,17,08,11,14.10
2021,04,17,08,12,14.20
2021,04,17,08,13,14.20
2021,04,17,08,14,14.20
2021,04,17,08,15,14.30
2021,04,17,08,16,14.30
2021,04,17,08,17,14.30
2021,04,17,08,18,14.30
2021,04,17,08,19,14.30
2021,04,17,08,20,14.30
2021,04,17,08,21,14.30
2021,04,17,08,22,14.30
2021,04,17,08,23,14.20
2021,04,17,08,24,14.20
2021,04,17,08,25,14.20
2021,04,17,08,26,14.20
2021,04,17,08,27,14.20
2021,04,17,08,28,14.20
2021,04,17,08,29,14.50
2021,04,17,08,30,15.10
2021,04,17,08,31,15.20
2021,04,17,08,32,15.20
2021,04,17,08,33,15.20
2021,04,17,08,34,15.20
2021,04,17,08,35,15.20
2021,04,17,08,36,15.30
2021,04,17,08,37,15.30
2021,04,17,08,38,15.30
2021,04,17,08,39,15.40
2021,04,17,08,40,15.40
2021,04,17,08,41,15.50
2021,04,17,08,42,15.50
2021,04,17,08,43,15.50
2021,04,17,08,44,15.50
2021,04,17,08,45,15.50
2021,04,17,08,46,15.50
2021,04,17,08,47,15.60
2021,04,17,08,48,15.60
2021,04,17,08,49,15.60
2021,04,17,08,50,15.60
2021,04,17,08,51,15.60
2021,04,17,08,52,15.60
2021,04,17,08,53,15.70
2021,04,17,08,54,15.70
2021,04,17,08,55,15.70
2021,04,17,08,56,15.80
2021,04,17,08,57,15.80
2021,04,17,08,58,15.90
2021,04,17,08,59,16.00
2021,04,17,09,00,16.10
2021,04,17,09,01,16.10
2021,04,17,09,02,16.10
2021,04,17,09,03,16.10
2021,04,17,09,04,16.10
2021,04,17,09,05,16.10
2021,04,17,09,06,16.10
2021,04,17,09,07,16.00
2021,04,17,09,08,15.90
2021,04,17,09,09,15.90
2021,04,17,09,10,15.90
2021,04,17,09,11,15.90
2021,04,17,09,12,15.90
2021,04,17,09,13,16.00
2021,04,17,09,14,16.10
2021,04,17,09,15,16.10
2021,04,17,09,16,16.10
2021,04,17,09,17,16.20
2021,04,17,09,18,16.30
2021,04,17,09,19,16.30
2021,04,17,09,20,16.30
2021,04,17,09,21,16.40
2021,04,17,09,22,16.40
2021,04,17,09,23,16.40
2021,04,17,09,24,16.40
2021,04,17,09,25,16.60
2021,04,17,09,26,16.70
2021,04,17,09,27,16.70
2021,04,17,09,28,16.70
2021,04,17,09,29,16.70
2021,04,17,09,30,16.80
2021,04,17,09,31,16.90
2021,04,17,09,32,16.90
2021,04,17,09,33,16.90
2021,04,17,09,34,16.90
2021,04,17,09,35,16.90
2021,04,17,09,36,16.80
2021,04,17,09,37,16.80
2021,04,17,09,38,16.80
2021,04,17,09,39,16.70
2021,04,17,09,40,16.70
2021,04,17,09,41,16.70
2021,04,17,09,42,16.70
2021,04,17,09,43,16.70
2021,04,17,09,44,16.70
2021,04,17,09,45,16.70
2021,04,17,09,46,16.80
2021,04,17,09,47,16.90
2021,04,17,09,48,16.90
2021,04,17,09,49,16.90
2021,04,17,09,50,17.00
2021,04,17,09,51,17.10
2021,04,17,09,52,17.10
2021,04,17,09,53,17.20
2021,04,17,09,54,17.30
2021,04,17,09,55,17.30
2021,04,17,09,56,17.30
2021,04,17,09,57,17.30
2021,04,17,09,58,17.40
2021,04,17,09,59,17.50
2021,04,17,10,00,17.50
2021,04,17,10,01,17.60
2021,04,17,10,02,17.60
2021,04,17,10,03,17.60
2021,04,17,10,04,17.60
2021,04,17,10,05,17.60
2021,04,17,10,06,17.60
2021,04,17,10,07,17.60
2021,04,17,10,08,17.60
2021,04,17,10,09,17.60
2021,04,17,10,10,17.60
2021,04,17,10,11,17.70
2021,04,17,10,12,17.70
2021,04,17,10,13,17.70
2021,04,17,10,14,17.70
2021,04,17,10,15,17.70
2021,04,17,10,16,17.60
2021,04,17,10,17,17.50
2021,04,17,10,18,17.40
2021,04,17,10,19,17.30
2021,04,17,10,20,17.30
2021,04,17,10,21,17.30
2021,04,17,10,22,17.30
2021,04,17,10,23,17.30
2021,04,17,10,24,17.20
2021,04,17,10,25,17.10
2021,04,17,10,26,17.10
2021,04,17,10,27,17.10
2021,04,17,10,28,17.10
2021,04,17,10,29,17.10
2021,04,17,10,30,17.20
2021,04,17,10,31,17.20
2021,04,17,10,32,17.30
2021,04,17,10,33,17.30
2021,04,17,10,34,17.30
2021,04,17,10,35,17.40
2021,04,17,10,36,17.40
2021,04,17,10,37,17.50
2021,04,17,10,38,17.60
2021,04,17,10,39,17.70
2021,04,17,10,40,17.80
2021,04,17,10,41,17.80
2021,04,17,10,42,17.80
2021,04,17,10,43,17.90
2021,04,17,10,44,17.90
2021,04,17,10,45,17.80
2021,04,17,10,46,17.70
2021,04,17,10,47,17.70
2021,04,17,10,48,17.80
2021,04,17,10,49,17.80
2021,04,17,10,50,17.90
2021,04,17,10,51,17.90
2021,04,17,10,52,18.10
2021,04,17,10,53,18.20
2021,04,17,10,54,18.20
2021,04,17,10,55,18.20
2021,04,17,10,56,18.20
2021,04,17,10,57,18.20
2021,04,17,10,58,18.20
2021,04,17,10,59,18.30
2021,04,17,11,00,18.30
2021,04,17,11,01,18.30
2021,04,17,11,02,18.30
2021,04,17,11,03,18.40
2021,04,17,11,04,18.50
2021,04,17,11,05,18.50
2021,04,17,11,06,18.50
2021,04,17,11,07,18.50
2021,04,17,11,08,18.40
2021,04,17,11,09,18.40
2021,04,17,11,10,18.40
2021,04,17,11,11,18.50
2021,04,17,11,12,18.60
2021,04,17,11,13,18.70
2021,04,17,11,14,18.80
2021,04,17,11,15,18.90
2021,04,17,11,16,18.90
2021,04,17,11,17,19.10
2021,04,17,11,18,19.20
2021,04,17,11,19,19.20
2021,04,17,11,20,19.20
2021,04,17,11,21,19.10
2021,04,17,11,22,19.10
2021,04,17,11,23,19.10
2021,04,17,11,24,19.10
2021,04,17,11,25,19.10
2021,04,17,11,26,19.20
2021,04,17,11,27,19.20
2021,04,17,11,28,19.30
2021,04,17,11,29,19.30
2021,04,17,11,30,19.30
2021,04,17,11,31,19.30
2021,04,17,11,32,19.30
2021,04,17,11,33,19.30
2021,04,17,11,34,19.30
2021,04,17,11,35,19.30
2021,04,17,11,36,19.30
2021,04,17,11,37,19.30
2021,04,17,11,38,19.40
2021,04,17,11,39,19.40
2021,04,17,11,40,19.60
2021,04,17,11,41,19.70
2021,04,17,11,42,19.80
2021,04,17,11,43,19.90
2021,04,17,11,44,20.00
2021,04,17,11,45,20.10
2021,04,17,11,46,20.20
2021,04,17,11,47,20.20
2021,04,17,11,48,20.30
2021,04,17,11,49,20.40
2021,04,17,11,50,20.50
2021,04,17,11,51,20.50
2021,04,17,11,52,20.60
2021,04,17,11,53,20.60
2021,04,17,11,54,20.60
2021,04,17,11,55,20.60
2021,04,17,11,56,20.50
2021,04,17,11,57,20.40
2021,04,17,11,58,20.20
2021,04,17,11,59,20.20
2021,04,17,12,00,20.00
2021,04,17,12,01,19.90
2021,04,17,12,02,19.70
2021,04,17,12,03,19.50
2021,04,17,12,04,19.40
2021,04,17,12,05,19.40
2021,04,17,12,06,19.30
2021,04,17,12,07,19.10
2021,04,17,12,08,19.10
2021,04,17,12,09,19.00
2021,04,17,12,10,18.90
2021,04,17,12,11,18.80
2021,04,17,12,12,18.80
2021,04,17,12,13,18.70
2021,04,17,12,14,18.50
2021,04,17,12,15,18.30
2021,04,17,12,16,18.10
2021,04,17,12,17,17.90
2021,04,17,12,18,17.90
2021,04,17,12,19,17.90
2021,04,17,12,20,17.90
2021,04,17,12,21,18.00
2021,04,17,12,22,18.10
2021,04,17,12,23,18.20
2021,04,17,12,24,18.20
2021,04,17,12,25,18.20
2021,04,17,12,26,18.20
2021,04,17,12,27,18.20
2021,04,17,12,28,18.30
2021,04,17,12,29,18.30
2021,04,17,12,30,18.40
2021,04,17,12,31,18.40
2021,04,17,12,32,18.50
2021,04,17,12,33,18.60
2021,04,17,12,34,18.70
2021,04,17,12,35,18.90
2021,04,17,12,36,19.00
2021,04,17,12,37,19.10
2021,04,17,12,38,19.30
2021,04,17,12,39,19.40
2021,04,17,12,40,19.40
2021,04,17,12,41,19.40
2021,04,17,12,42,19.30
2021,04,17,12,43,19.30
2021,04,17,12,44,19.40
2021,04,17,12,45,19.40
2021,04,17,12,46,19.30
2021,04,17,12,47,19.20
2021,04,17,12,48,19.20
2021,04,17,12,49,19.20
2021,04,17,12,50,19.10
2021,04,17,12,51,19.10
2021,04,17,12,52,19.20
2021,04,17,12,53,19.20
2021,04,17,12,54,19.20
2021,04,17,12,55,19.10
2021,04,17,12,56,19.00
2021,04,17,12,57,18.90
2021,04,17,12,58,18.90
2021,04,17,12,59,18.80
2021,04,17,13,00,18.80
2021,04,17,13,01,18.70
2021,04,17,13,02,18.70
2021,04,17,13,03,18.70
2021,04,17,13,04,18.90
2021,04,17,13,05,18.90
2021,04,17,13,06,19.00
2021,04,17,13,07,19.10
2021,04,17,13,08,19.20
2021,04,17,13,09,19.30
2021,04,17,13,10,19.30
2021,04,17,13,11,19.30
2021,04,17,13,12,19.30
2021,04,17,13,13,19.30
2021,04,17,13,14,19.40
2021,04,17,13,15,19.50
2021,04,17,13,16,19.60
2021,04,17,13,17,19.60
2021,04,17,13,18,19.70
2021,04,17,13,19,19.70
2021,04,17,13,20,19.70
2021,04,17,13,21,19.70
2021,04,17,13,22,19.70
2021,04,17,13,23,19.80
2021,04,17,13,24,19.90
2021,04,17,13,25,19.80
2021,04,17,13,26,19.70
2021,04,17,13,27,19.70
2021,04,17,13,28,19.70
2021,04,17,13,29,19.70
2021,04,17,13,30,19.70
2021,04,17,13,31,19.70
2021,04,17,13,32,19.70
2021,04,17,13,33,19.70
2021,04,17,13,34,19.80
2021,04,17,13,35,19.90
2021,04,17,13,36,20.00
2021,04,17,13,37,20.20
2021,04,17,13,38,20.40
2021,04,17,13,39,20.50
2021,04,17,13,40,20.60
2021,04,17,13,41,20.70
2021,04,17,13,42,20.80
2021,04,17,13,43,21.00
2021,04,17,13,44,21.10
2021,04,17,13,45,21.20
2021,04,17,13,46,21.30
2021,04,17,13,47,21.50
2021,04,17,13,48,21.60
2021,04,17,13,49,21.70
2021,04,17,13,50,21.80
2021,04,17,13,51,21.90
2021,04,17,13,52,22.00
2021,04,17,13,53,22.10
2021,04,17,13,54,22.20
2021,04,17,13,55,22.10
2021,04,17,13,56,22.10
2021,04,17,13,57,22.10
2021,04,17,13,58,22.10
2021,04,17,13,59,22.20
2021,04,17,14,00,22.20
2021,04,17,14,01,22.10
2021,04,17,14,02,22.10
2021,04,17,14,03,22.10
2021,04,17,14,04,22.20
2021,04,17,14,05,22.20
2021,04,17,14,06,22.10
2021,04,17,14,07,22.10
2021,04,17,14,08,22.10
2021,04,17,14,09,22.10
2021,04,17,14,10,22.10
2021,04,17,14,11,22.10
2021,04,17,14,12,22.10
2021,04,17,14,13,22.10
2021,04,17,14,14,22.10
2021,04,17,14,15,22.20
2021,04,17,14,16,22.30
2021,04,17,14,17,22.40
2021,04,17,14,18,22.40
2021,04,17,14,19,22.50
2021,04,17,14,20,22.60
2021,04,17,14,21,22.70
2021,04,17,14,22,22.60
2021,04,17,14,23,22.60
2021,04,17,14,24,22.40
2021,04,17,14,25,22.40
2021,04,17,14,26,22.30
2021,04,17,14,27,22.30
2021,04,17,14,28,22.40
2021,04,17,14,29,22.50
2021,04,17,14,30,22.50
2021,04,17,14,31,22.60
2021,04,17,14,32,22.70
2021,04,17,14,33,22.80
2021,04,17,14,34,22.90
2021,04,17,14,35,22.90
2021,04,17,14,36,22.90
2021,04,17,14,37,22.90
2021,04,17,14,38,22.90
2021,04,17,14,39,22.90
2021,04,17,14,40,22.90
2021,04,17,14,41,23.00
2021,04,17,14,42,23.10
2021,04,17,14,43,23.10
2021,04,17,14,44,22.90
2021,04,17,14,45,22.90
2021,04,17,14,46,22.80
2021,04,17,14,47,22.70
2021,04,17,14,48,22.60
2021,04,17,14,49,22.50
2021,04,17,14,50,22.40
2021,04,17,14,51,22.40
2021,04,17,14,52,22.50
2021,04,17,14,53,22.60
2021,04,17,14,54,22.70
2021,04,17,14,55,22.80
2021,04,17,14,56,22.90
2021,04,17,14,57,23.00
2021,04,17,14,58,23.10
2021,04,17,14,59,23.20
2021,04,17,15,00,23.30
2021,04,17,15,01,23.30
2021,04,17,15,02,23.40
2021,04,17,15,03,23.40
2021,04,17,15,04,23.40
2021,04,17,15,05,23.20
2021,04,17,15,06,23.00
2021,04,17,15,07,22.90
2021,04,17,15,08,22.90
2021,04,17,15,09,22.90
2021,04,17,15,10,22.90
2021,04,17,15,11,23.00
2021,04,17,15,12,23.10
2021,04,17,15,13,23.10
2021,04,17,15,14,23.10
2021,04,17,15,15,23.10
2021,04,17,15,16,23.10
2021,04,17,15,17,23.20
2021,04,17,15,18,23.30
2021,04,17,15,19,23.40
2021,04,17,15,20,23.50
2021,04,17,15,21,23.60
2021,04,17,15,22,23.60
2021,04,17,15,23,23.70
2021,04,17,15,24,23.70
2021,04,17,15,25,23.70
2021,04,17,15,26,23.80
2021,04,17,15,27,23.90
2021,04,17,15,28,24.00
2021,04,17,15,29,24.10
2021,04,17,15,30,24.10
2021,04,17,15,31,24.10
2021,04,17,15,32,24.10
2021,04,17,15,33,24.20
2021,04,17,15,34,24.10
2021,04,17,15,35,24.10
2021,04,17,15,36,24.10
2021,04,17,15,37,24.00
2021,04,17,15,38,23.90
2021,04,17,15,39,23.90
2021,04,17,15,40,23.80
2021,04,17,15,41,23.70
2021,04,17,15,42,23.70
2021,04,17,15,43,23.60
2021,04,17,15,44,23.60
2021,04,17,15,45,23.60
2021,04,17,15,46,23.60
2021,04,17,15,47,23.50
2021,04,17,15,48,23.40
2021,04,17,15,49,23.40
2021,04,17,15,50,23.40
2021,04,17,15,51,23.40
2021,04,17,15,52,23.50
2021,04,17,15,53,23.60
2021,04,17,15,54,23.70
2021,04,17,15,55,23.70
2021,04,17,15,56,23.70
2021,04,17,15,57,23.70
2021,04,17,15,58,23.70
2021,04,17,15,59,23.60
2021,04,17,16,00,23.50
2021,04,17,16,01,23.40
2021,04,17,16,02,23.40
2021,04,17,16,03,23.30
2021,04,17,16,04,23.30
2021,04,17,16,05,23.30
2021,04,17,16,06,23.20
2021,04,17,16,07,23.20
2021,04,17,16,08,23.20
2021,04,17,16,09,23.10
2021,04,17,16,10,23.00
2021,04,17,16,11,22.90
2021,04,17,16,12,22.90
2021,04,17,16,13,22.90
2021,04,17,16,14,22.90
2021,04,17,16,15,22.90
2021,04,17,16,16,22.90
2021,04,17,16,17,22.90
2021,04,17,16,18,22.90
2021,04,17,16,19,22.90
2021,04,17,16,20,23.10
2021,04,17,16,21,23.10
2021,04,17,16,22,23.20
2021,04,17,16,23,23.30
2021,04,17,16,24,23.40
2021,04,17,16,25,23.40
2021,04,17,16,26,23.40
2021,04,17,16,27,23.50
2021,04,17,16,28,23.60
2021,04,17,16,29,23.70
2021,04,17,16,30,23.70
2021,04,17,16,31,23.70
2021,04,17,16,32,23.70
2021,04,17,16,33,23.70
2021,04,17,16,34,23.70
2021,04,17,16,35,23.70
2021,04,17,16,36,23.70
2021,04,17,16,37,23.70
2021,04,17,16,38,23.60
2021,04,17,16,39,23.50
2021,04,17,16,40,23.40
2021,04,17,16,41,23.40
2021,04,17,16,42,23.40
2021,04,17,16,43,23.40
2021,04,17,16,44,23.40
2021,04,17,16,45,23.40
2021,04,17,16,46,23.40
2021,04,17,16,47,23.30
2021,04,17,16,48,23.30
2021,04,17,16,49,23.30
2021,04,17,16,50,23.20
2021,04,17,16,51,23.00
2021,04,17,16,52,22.80
2021,04,17,16,53,22.50
2021,04,17,16,54,22.30
2021,04,17,16,55,22.10
2021,04,17,16,56,21.80
2021,04,17,16,57,21.40
2021,04,17,16,58,21.30
2021,04,17,16,59,21.10
2021,04,17,17,00,21.00
2021,04,17,17,01,20.80
2021,04,17,17,02,20.70
2021,04,17,17,03,20.50
2021,04,17,17,04,20.30
2021,04,17,17,05,20.20
2021,04,17,17,06,20.10
2021,04,17,17,07,20.00
2021,04,17,17,08,19.90
2021,04,17,17,09,19.80
2021,04,17,17,10,19.80
2021,04,17,17,11,19.70
2021,04,17,17,12,19.70
2021,04,17,17,13,19.60
2021,04,17,17,14,19.50
2021,04,17,17,15,19.40
2021,04,17,17,16,19.40
2021,04,17,17,17,19.30
2021,04,17,17,18,19.30
2021,04,17,17,19,19.30